sat.trackr.live / text

‹ back to catalog

STARLINK-11523 [DTC]

NORAD 62565 · 2025-006M

PAYLOAD ACTIVE UNKNOWN

§ Identity

Operator
Country
US
Launch date
2025-01-10
Launch site
AFETR
Launch vehicle
Mass (kg)
RCS (m²)

Purposes: comms

External: N2YO · Heavens-Above · Gunter

§ Orbital elements

Epoch: 2026-05-25T00:20:28.032576Z

Period
91.67 min
Inclination
43.0015°
Eccentricity
0.0002931
Mean motion
15.70865305 rev/d
Perigee alt
354.4 km
Apogee alt
358.4 km
Semi-major
6,734.6 km
B*
1.5312e-3
RAAN
40.0698°
Arg perigee
271.1870°
Mean anomaly
88.8662°
Rev number
7,860

§ Raw data

STARLINK-11523 [DTC]1 62565U 25006M   26145.01421334  .00201086  00000+0  15312-2 0  99932 62565  43.0015  40.0698 0002931 271.1870  88.8662 15.70865305 78606

JSON: /api/v1/satellites/62565 · /tle

For live sub-satellite position, see the globe view (requires WebGL).

§ Visibility from observer

Set your observer location to see the next 7 days of passes ≥ 10°. The values pass through the URL so the page stays shareable.

No JS? Fill the form by hand. The geolocation button needs JavaScript.